Location: Bourg de Nozay
(47.5667°N, 1.6167°W)
Time: 22:40:20
(UTC+00:00)

Daily predictions for brighter satellites

Satellite Brightness Start Highest point End
(mag) Time Altitude Azimuth Time Altitude Azimuth Time Altitude Azimuth
Cosmos 2227 Rocket 2.9 18:09:40 10° NNW 18:15:17 62° WSW 18:20:50 10° S
USA 308 4.0 18:12:40 10° SSW 18:16:21 29° SE 18:20:02 10° ENE
Cosmos 1939 Rocket 3.5 18:12:45 10° S 18:16:34 59° W 18:20:24 10° NNW
Cosmos 1743 Rocket 3.6 18:14:58 10° S 18:19:15 61° E 18:23:37 10° NNE
Cosmos 1805 Rocket 4.2 18:16:30 10° SSE 18:20:25 33° E 18:24:22 10° NNE
H-2A R/B 2.9 18:16:49 10° N 18:20:51 53° WNW 18:24:49 10° SSW
Cosmos 1850 Rocket 4.0 18:16:40 10° NNW 18:21:53 78° ENE 18:27:04 10° SSE
Meteor 1-27 Rocket 3.8 18:19:36 10° N 18:25:01 53° ENE 18:30:24 10° SSE
H-2A R/B 2.2 18:21:33 10° SSE 18:26:53 63° ENE 18:32:17 10° N
ARGOS 3.5 18:22:38 10° SE 18:27:46 46° ENE 18:32:57 10° N
Cosmos 1862 3.3 18:24:07 10° S 18:28:08 89° W 18:32:12 10° N
Cosmos 2228 Rocket 3.1 18:23:38 10° N 18:28:10 65° ENE 18:32:37 10° SSE
Aureole 1 Rocket 4.3 18:22:05 10° NNW 18:29:48 86° WSW 18:35:45 10° SSE
Cosmos 2278 4.1 18:25:21 10° S 18:30:39 43° ESE 18:36:00 10° NE
Cosmos 1271 Rocket 3.8 18:27:41 10° NNE 18:30:42 22° ENE 18:33:42 10° ESE
COSMOS 2455 2.9 18:24:49 10° NNW 18:30:48 60° NE 18:36:45 10° SE
FALCON 9 DEB 3.7 18:28:04 10° SSW 18:31:01 35° SE 18:33:29 13° ENE
SL-08 RB Rocket 4.4 18:28:37 10° SE 18:32:36 32° ENE 18:36:39 10° N
Cosmos 2297 Rocket 4.0 18:27:32 10° NW 18:32:39 36° WSW 18:37:45 10° S
HJ-1C 3.9 18:32:11 10° SE 18:35:17 37° ENE 18:38:24 10° N
CZ-2D R/B 4.0 18:31:40 10° S 18:35:23 56° W 18:39:09 10° NNW
Cosmos 1812 3.4 18:33:04 10° NNW 18:36:52 59° W 18:40:38 10° S
FALCON 9 DEB 4.2 18:34:15 10° W 18:37:30 38° NNW 18:40:27 12° NE
CZ-2C R/B 3.3 18:33:08 10° NNE 18:38:09 34° E 18:43:02 10° SSE
Cosmos 1689 Rocket 2.5 18:35:48 10° NNE 18:38:29 36° E 18:41:10 10° SSE
CSL-04 Debris 4.3 18:35:47 10° SE 18:41:01 53° ENE 18:46:19 10° N
ATLAS 5 CENTAUR R/B 3.7 18:23:11 10° SW 18:41:41 84° NW 18:46:10 10° NE
Cosmos 2084 3.5 18:37:39 10° SSW 18:41:46 57° SE 18:46:00 10° NE
Cosmos 1666 Rocket 4.4 18:38:42 10° SSE 18:42:21 27° E 18:46:01 10° NNE
Cosmos 1709 Rocket 4.1 18:37:07 10° S 18:43:16 85° W 18:49:32 10° N
CZ-2C R/B 4.0 18:37:55 10° S 18:43:39 59° W 18:49:16 10° NNW
BREEZE-M DEB (TANK) 1.3 18:41:52 10° WSW 18:44:00 87° SSE 18:46:16 16° ENE
Cosmos 1844 Rocket 4.4 18:41:26 10° N 18:44:42 15° NE 18:47:04 12° ENE
Gbstr 26 Del rocket 3.8 18:41:42 10° SSW 18:45:45 39° SE 18:49:30 16° ENE
Cosmos 2181 Rocket 4.0 18:39:15 10° N 18:45:45 79° E 18:52:11 10° SSE
NOSS 2-1 (C) 4.2 18:41:04 10° NW 18:45:54 72° NE 18:52:44 10° SE
Cosmos 1331 Rocket 4.2 18:40:52 10° S 18:45:58 52° ESE 18:51:04 10° NNE
CSL-04 Rocket 3.8 18:42:58 10° SE 18:48:24 57° ENE 18:53:49 10° N
Cosmos 1242 Rocket 3.9 18:45:07 10° NNW 18:48:28 42° W 18:51:52 10° SSW
TSX-5 3.9 18:44:26 10° NNW 18:49:06 61° NE 18:52:46 10° SE
Cosmos 292 Rocket 3.7 18:44:24 10° SSW 18:49:08 84° ESE 18:53:55 10° NNE
NOSS 2-1 (D) 4.2 18:47:09 10° NW 18:52:02 79° NE 18:58:58 10° SE
FALCON 9 DEB 3.2 18:52:20 10° SW 18:55:26 50° SE 18:56:59 25° E
COSMO-SKYMED 1 3.8 18:52:05 10° N 18:56:15 46° WNW 19:00:24 10° SW
YAOGAN 1 2.8 18:52:39 10° S 18:56:58 76° WSW 19:01:20 10° NNW
Helios 1A Rocket 2.8 18:53:25 10° SSE 18:57:28 71° ENE 19:01:32 10° N
Okean-O 2.8 18:53:54 10° S 18:58:19 76° WSW 19:02:47 10° NNW
Cosmos 1500 Rocket 4.4 18:55:12 10° SSW 18:59:26 52° WNW 19:03:41 10° N
Cosmos 220 Rocket 3.8 18:56:45 10° SSW 19:00:56 72° ESE 19:05:11 10° NNE
SL-4 R/B 1.6 18:57:48 10° WSW 19:01:23 78° NNW 19:03:19 24° ENE
FALCON 9 DEB 2.8 19:00:41 10° SW 19:03:50 70° SSE 19:05:10 31° ENE
APEX 3.7 19:03:13 10° N 19:05:43 25° NE 19:05:43 25° NE
Cosmos 1980 Rocket 2.1 19:00:12 10° SSW 19:05:51 82° ESE 19:11:35 10° NNE
Lacrosse 5 rocket 2.5 19:02:25 10° WNW 19:06:39 44° SW 19:10:39 10° SSE
Sich 1 2.9 19:04:14 10° S 19:08:35 80° E 19:13:00 10° NNE
CZ-4B R/B 3.8 19:07:32 10° NNW 19:10:01 23° WNW 19:12:29 10° WSW
Cosmos 44 4.5 19:08:23 10° NW 19:13:38 49° WSW 19:18:48 10° SSE
Cosmos 1302 Rocket 4.2 19:09:06 10° S 19:14:01 46° ESE 19:19:00 10° NNE
Cosmos 2227 4.2 19:09:30 10° NNW 19:15:18 71° ENE 19:20:30 13° SE
Cosmos 2322 Rocket 3.2 19:11:13 10° SSE 19:15:03 24° ESE 19:15:03 24° ESE
Cosmos 968 Rocket 3.8 19:11:35 10° NNW 19:16:37 44° ENE 19:19:11 26° ESE
Cosmos 1437 2.5 19:15:50 10° NNW 19:18:44 78° W 19:21:06 14° S
Cosmos 1707 Rocket 3.5 19:14:49 10° N 19:19:17 88° E 19:23:39 10° S
Cosmos 1867 3.5 19:17:21 10° SSW 19:22:47 85° SE 19:28:07 11° NE
ERS-2 2.8 19:20:02 10° N 19:23:36 54° WNW 19:27:10 10° SSW
Cosmos 724 4.5 19:18:10 10° SW 19:24:13 78° NW 19:30:28 10° NE
Cosmos 1633 Rocket 3.0 19:20:22 10° S 19:24:42 61° E 19:29:05 10° NNE
Meteor 1-22 4.5 19:21:43 10° S 19:27:08 78° E 19:32:30 10° NNE
Meteor 1-20 Rocket 4.0 19:23:10 10° S 19:28:36 73° E 19:34:04 10° NNE
Cosmos 1697 Rocket 4.0 19:25:06 10° WSW 19:30:24 40° NW 19:35:44 10° NNE
Cosmos 1110 Rocket 4.5 19:26:18 10° SW 19:31:34 63° WNW 19:36:53 10° NNE
USA 234 3.2 19:29:23 17° NE 19:34:41 86° NNW 19:41:15 10° WSW
SL-16 R/B 2.5 19:29:31 10° S 19:34:49 42° ESE 19:37:13 28° ENE
Meteor 1-19 Rocket 4.3 19:31:25 10° N 19:37:27 69° ENE 19:42:35 14° SSE
USA 305 2.9 19:33:41 10° WSW 19:37:58 82° NNW 19:39:14 45° NE
Cosmos 2327 Rocket 4.4 19:35:56 10° S 19:42:16 72° E 19:48:34 10° NNE
MOS 1 4.3 19:39:28 29° SE 19:42:16 59° ENE 19:47:52 10° N
CZ-4 R/B 4.1 19:39:29 10° SW 19:42:20 20° W 19:45:13 10° NW
Resurs 01 Rocket 3.3 19:44:38 20° NNE 19:44:38 20° NNE 19:46:30 10° N
SeaSat 1 3.5 19:39:15 10° NNE 19:43:56 44° NW 19:48:36 10° WSW
Ariane Rocket 3.0 19:43:24 40° SE 19:45:03 60° ENE 19:50:06 10° N
USA 307 2.9 19:41:33 10° WSW 19:45:49 77° NNW 19:46:44 54° NE
DMSP B5D2-2 3.9 19:40:36 10° NNE 19:45:53 80° ESE 19:51:06 10° S
FALCON 9 DEB 3.5 19:44:54 10° WSW 19:47:39 56° WNW 19:47:39 56° WNW
Nadezhda 3 Rocket 3.9 19:41:45 10° N 19:48:07 84° E 19:54:31 10° S
Cosmos 2154 Rocket 3.9 19:42:36 10° S 19:48:50 80° E 19:55:04 10° N
IRS-1A Rocket 4.2 19:47:27 30° SSE 19:50:22 70° ENE 19:55:58 10° N
Cosmos 2263 Rocket 2.6 19:45:59 10° NNW 19:51:29 62° WSW 19:55:56 16° S
USA 306 3.0 19:47:55 10° WSW 19:52:11 70° NNW 19:52:52 57° NNE
USA 308 3.0 19:51:51 10° WSW 19:56:07 69° NNW 19:56:36 61° NNE
Cosmos 1470 Rocket 3.4 19:52:19 10° S 19:56:47 75° E 20:01:16 10° NNE
Cosmos 1515 3.8 19:53:10 10° NNW 19:57:00 72° W 19:57:16 68° SW
Cosmos 2074 Rocket 4.5 19:51:41 10° SSW 19:57:53 61° WNW 20:04:07 10° N
Meteor 1-14 Rocket 4.1 19:53:45 10° S 19:59:18 64° E 20:04:47 10° NNE
Cosmos 1610 Rocket 4.4 19:53:45 10° S 19:59:55 87° W 20:06:12 10° N
OBJECT-B 3.0 20:05:18 20° NNW 20:05:18 20° NNW 20:06:25 10° NNW
SJ-6B 3.1 20:04:15 62° SSW 20:04:43 70° WSW 20:08:50 10° NNW
Meteor 2-4 Rocket 3.6 20:05:11 10° N 20:10:57 76° ENE 20:11:52 62° SE
GP-B 3.3 20:10:27 41° SSW 20:11:52 67° W 20:16:18 10° N
Okean 1 4.2 20:10:06 10° NNW 20:13:59 48° W 20:14:33 44° WSW
Cosmos 1461 3.5 20:10:04 10° SW 20:13:50 57° SSW 20:13:50 57° SSW
BREEZE-M DEB (TANK) 4.3 19:56:30 10° W 20:15:52 82° S 20:17:22 57° ESE
Cosmos 1932 4.4 20:09:31 10° SSW 20:16:00 82° SE 20:18:17 43° NE
CZ-2C R/B 4.0 20:13:19 10° N 20:18:30 40° WNW 20:23:33 10° SW
Cosmos 1844 4.3 20:13:09 10° NNW 20:17:59 44° NNE 20:17:59 44° NNE
Cosmos 44 Rocket 3.5 20:15:07 10° NW 20:19:59 72° N 20:19:59 72° N
Cosmos 2278 Rocket 4.1 20:24:00 10° N 20:26:30 17° NNE 20:26:30 17° NNE
Cosmos 1844 Rocket 3.0 20:24:12 10° NNW 20:28:45 54° NNE 20:28:45 54° NNE
Gbstr 26 Del rocket 3.7 20:27:45 10° WSW 20:32:04 67° NW 20:32:04 67° NW
SPOT 3 Rocket 4.1 20:34:11 50° N 20:34:11 50° N 20:38:04 10° NNW
Cosmos 2341 Rocket 3.9 20:31:12 41° S 20:33:39 90° WNW 20:40:00 10° N
Cosmos 962 Rocket 4.5 20:29:10 10° SSW 20:35:20 79° W 20:41:37 10° N
SL-4 R/B 4.4 20:37:53 10° WNW 20:38:54 17° WNW 20:38:54 17° WNW
Cosmos 1339 Rocket 4.5 20:41:51 10° N 20:47:42 77° WNW 20:47:42 77° WNW
Cosmos 1980 Rocket 4.4 20:46:12 10° W 20:50:35 22° NW 20:54:58 10° N
Cosmos 2322 Rocket 3.3 20:53:42 10° SW 20:57:03 36° WSW 20:57:03 36° WSW
USA 234 4.0 21:16:43 44° N 21:17:20 45° NNW 21:23:29 10° W
SL-16 R/B 3.5 21:13:48 10° WSW 21:19:00 37° NW 21:19:19 36° NW
Resurs 01 Rocket 4.3 21:22:11 17° NW 21:22:11 17° NW 21:23:18 10° NNW
